Weather History for Homestead AFB, FL

Change the Weather History Date:

Sunday, July 28, 2013

  Actual Average Record
Temperature  
Mean Temperature 82 °F -  
Max Temperature 89 °F 91 °F 95 °F (1940)
Min Temperature 75 °F 72 °F 65 °F (1939)
Cooling Degree Days 17    
Growing Degree Days 32 (Base 50)    
Moisture  
Dew Point 74 °F    
Average Humidity 76    
Maximum Humidity 94    
Minimum Humidity 59    
Precipitation  
Precipitation 0.00 in - - ()
Sea Level Pressure  
Sea Level Pressure 30.03 in    
Wind  
Wind Speed 3 mph (SE)    
Max Wind Speed 10 mph    
Max Gust Speed -    
Visibility 10 miles    
Events      
Averages and records for this station are not official NWS values.
T = Trace of Precipitation, MM = Missing Value Source: NWS Daily Summary

Daily Weather History Graph

Daily Weather History Graph

Search for Another Location

Airport:

Trip Planner

Search our weather history database for the weather conditions in past years. The results will help you decide how hot, cold, wet, or windy it might be!

Date:

Astronomy

Jul. 28, 2013 Rise Set
Actual Time 6:46 AM EDT 8:09 PM EDT
Civil Twilight 6:21 AM EDT 8:34 PM EDT
Nautical Twilight 5:52 AM EDT 9:03 PM EDT
Astronomical Twilight 5:21 AM EDT 9:34 PM EDT
Moon No Moon Rise 12:40 PM EDT
Length of Visible Light 14h 12m
Length of Day
13h 22m
Waning Gibbous, 61% of the Moon is Illuminated
Jul 28
Waning Gibbous
Jul 29
Last Quarter
Aug 6
New
Aug 14
First Quarter
Aug 20
Full

Hourly Weather History & Observations

Time (EDT) Temp. Heat Index Dew Point Humidity Pressure Visibility Wind Dir Wind Speed Gust Speed Precip Events Conditions
12:58 AM 77.0 °F - 75.2 °F 94% 30.02 in 10.0 mi SSW 4.6 mph - N/A   Partly Cloudy
1:58 AM 77.0 °F - 75.2 °F 94% 30.00 in 10.0 mi SW 2.3 mph - N/A   Clear
2:58 AM 77.0 °F - 75.2 °F 94% 29.99 in 10.0 mi Calm Calm - N/A   Clear
3:58 AM 75.2 °F - 71.6 °F 89% 29.99 in 10.0 mi ESE 2.3 mph - N/A   Clear
4:58 AM 75.2 °F - 71.6 °F 89% 29.98 in 10.0 mi SE 2.3 mph - N/A   Clear
5:58 AM 75.2 °F - 71.6 °F 89% 30.00 in 10.0 mi Calm Calm - N/A   Clear
6:58 AM 75.2 °F - 71.6 °F 89% 30.01 in 10.0 mi Calm Calm - N/A   Clear
7:58 AM 78.8 °F - 73.4 °F 83% 30.02 in 10.0 mi WNW 2.3 mph - N/A   Partly Cloudy
8:57 AM 84.2 °F 90.9 °F 73.4 °F 70% 30.04 in 10.0 mi South 2.3 mph - N/A   Clear
9:57 AM 84.2 °F 90.9 °F 73.4 °F 70% 30.05 in 10.0 mi Calm Calm - N/A   Clear
10:57 AM 87.8 °F 95.6 °F 73.4 °F 62% 30.05 in 10.0 mi Variable 3.5 mph - N/A   Clear
11:55 AM 89.6 °F 99.8 °F 75.2 °F 62% 30.05 in 10.0 mi South 4.6 mph - N/A   Partly Cloudy
12:55 PM 87.8 °F 97.6 °F 75.2 °F 66% 30.05 in 10.0 mi ESE 8.1 mph - N/A   Scattered Clouds
1:55 PM 89.1 °F 99.1 °F 75.2 °F 63% 30.04 in 10.0 mi ESE 8.1 mph - N/A   Mostly Cloudy
2:58 PM 89.6 °F 98.2 °F 73.4 °F 59% 30.03 in 10.0 mi ESE 9.2 mph - N/A   Partly Cloudy
3:58 PM 86.0 °F 93.4 °F 73.4 °F 66% 30.03 in 10.0 mi East 10.4 mph - N/A   Mostly Cloudy
4:58 PM 87.8 °F 95.6 °F 73.4 °F 62% 30.02 in 10.0 mi ESE 5.8 mph - N/A   Mostly Cloudy
5:58 PM 86.0 °F 93.4 °F 73.4 °F 66% 30.03 in 10.0 mi ESE 5.8 mph - N/A   Mostly Cloudy
6:58 PM 86.0 °F 93.4 °F 73.4 °F 66% 30.03 in 10.0 mi ESE 3.5 mph - N/A   Mostly Cloudy
7:58 PM 84.2 °F 92.3 °F 75.2 °F 74% 30.04 in 10.0 mi SE 3.5 mph - N/A   Mostly Cloudy
8:55 PM 82.4 °F 89.5 °F 75.2 °F 79% 30.07 in 10.0 mi ENE 1.2 mph - N/A   Mostly Cloudy
9:58 PM 82.4 °F 89.5 °F 75.2 °F 79% 30.09 in 10.0 mi Calm Calm - N/A   Mostly Cloudy
10:58 PM 80.6 °F 85.4 °F 73.4 °F 79% 30.09 in 10.0 mi Calm Calm - N/A   Scattered Clouds
11:58 PM 78.8 °F - 73.4 °F 83% 30.09 in 10.0 mi ESE 3.5 mph - N/A   Clear